Location: Newark
(29.4733°N, 82.6067°W)
Time: 04:33:30
(UTC+00:00)

STARLINK-3050 - Pass Details

Date: 28 September 2021
Orbit: 357 x 362 km, 70.0° (Epoch: 16 October)

Event Time Altitude Azimuth Distance (km) Brightness Sun altitude
Rises 10:48:05 0° 169° (S) 2,167 6.8 -8.3°
Reaches altitude 10° 10:50:32 10° 146° (SSE) 1,328 6.0 -7.7°
Maximum altitude 10:52:27 16° 105° (ESE) 1,030 6.3 -7.3°
Drops below altitude 10° 10:54:23 10° 64° (ENE) 1,336 6.8 -6.9°
Sets 10:56:51 0° 41° (NE) 2,186 7.4 -6.3°
